Time,TemperatureF,DewpointF,PressureIn,WindDirection,WindDirectionDegrees,WindSpeedMPH,WindSpeedGustMPH,Humidity,HourlyPrecipIn,Conditions,Clouds,dailyrainin,SoftwareType,DateUTC
2013-07-17 00:01:00,55.0,-99.9,-100.00,East,93,7.0,11.0,-999,-99.99,,,-99.99,,2013-07-17 06:01:00,
2013-07-17 00:10:00,52.0,-99.9,-100.00,East,93,7.0,10.0,-999,-99.99,,,-99.99,,2013-07-17 06:10:00,
2013-07-17 00:52:00,52.0,-99.9,-100.00,East,93,7.0,10.0,-999,-99.99,,,-99.99,,2013-07-17 06:52:00,
2013-07-17 01:01:00,52.0,-99.9,-100.00,East,93,7.0,10.0,-999,-99.99,,,-99.99,,2013-07-17 07:01:00,
2013-07-17 01:10:00,52.0,-99.9,-100.00,ENE,78,8.0,11.0,-999,-99.99,,,-99.99,,2013-07-17 07:10:00,
2013-07-17 01:52:00,52.0,-99.9,-100.00,ENE,78,8.0,11.0,-999,-99.99,,,-99.99,,2013-07-17 07:52:00,
2013-07-17 02:02:00,52.0,-99.9,-100.00,ENE,78,8.0,11.0,-999,-99.99,,,-99.99,,2013-07-17 08:02:00,
2013-07-17 02:10:00,52.0,-99.9,-100.00,North,10,5.0,8.0,-999,-99.99,,,-99.99,,2013-07-17 08:10:00,
2013-07-17 02:53:00,52.0,-99.9,-100.00,North,10,5.0,8.0,-999,-99.99,,,-99.99,,2013-07-17 08:53:00,
2013-07-17 03:02:00,52.0,-99.9,-100.00,North,10,5.0,8.0,-999,-99.99,,,-99.99,,2013-07-17 09:02:00,
2013-07-17 03:10:00,52.0,-99.9,-100.00,NNE,31,3.0,8.0,-999,-99.99,,,-99.99,,2013-07-17 09:10:00,
2013-07-17 03:52:00,52.0,-99.9,-100.00,NNE,31,3.0,8.0,-999,-99.99,,,-99.99,,2013-07-17 09:52:00,
2013-07-17 04:01:00,52.0,-99.9,-100.00,NNE,31,3.0,8.0,-999,-99.99,,,-99.99,,2013-07-17 10:01:00,
2013-07-17 04:10:00,52.0,-99.9,-100.00,NNE,26,4.0,6.0,-999,-99.99,,,-99.99,,2013-07-17 10:10:00,
2013-07-17 04:52:00,52.0,-99.9,-100.00,NNE,26,4.0,6.0,-999,-99.99,,,-99.99,,2013-07-17 10:52:00,
2013-07-17 05:02:00,52.0,-99.9,-100.00,NNE,26,4.0,6.0,-999,-99.99,,,-99.99,,2013-07-17 11:02:00,
2013-07-17 05:10:00,50.0,-99.9,-100.00,NNE,31,3.0,4.0,-999,-99.99,,,-99.99,,2013-07-17 11:10:00,
2013-07-17 05:52:00,50.0,-99.9,-100.00,NNE,31,3.0,4.0,-999,-99.99,,,-99.99,,2013-07-17 11:52:00,
2013-07-17 06:02:00,50.0,-99.9,-100.00,NNE,31,3.0,4.0,-999,-99.99,,,-99.99,,2013-07-17 12:02:00,
2013-07-17 06:10:00,50.0,-99.9,-100.00,NE,42,3.0,3.0,-999,-99.99,,,-99.99,,2013-07-17 12:10:00,
2013-07-17 06:53:00,50.0,-99.9,-100.00,NE,42,3.0,3.0,-999,-99.99,,,-99.99,,2013-07-17 12:53:00,
2013-07-17 07:02:00,50.0,-99.9,-100.00,NE,42,3.0,3.0,-999,-99.99,,,-99.99,,2013-07-17 13:02:00,
2013-07-17 07:10:00,52.0,-99.9,-100.00,North,10,1.0,2.0,-999,-99.99,,,-99.99,,2013-07-17 13:10:00,
2013-07-17 07:53:00,52.0,-99.9,-100.00,North,10,1.0,2.0,-999,-99.99,,,-99.99,,2013-07-17 13:53:00,
2013-07-17 08:02:00,52.0,-99.9,-100.00,North,10,1.0,2.0,-999,-99.99,,,-99.99,,2013-07-17 14:02:00,
2013-07-17 08:10:00,57.0,-99.9,-100.00,NNE,28,4.0,5.0,-999,-99.99,,,-99.99,,2013-07-17 14:10:00,
2013-07-17 08:52:00,57.0,-99.9,-100.00,NNE,28,4.0,5.0,-999,-99.99,,,-99.99,,2013-07-17 14:52:00,
2013-07-17 09:02:00,57.0,-99.9,-100.00,NNE,28,4.0,5.0,-999,-99.99,,,-99.99,,2013-07-17 15:02:00,
2013-07-17 09:10:00,61.0,-99.9,-100.00,North,10,3.0,7.0,-999,-99.99,,,-99.99,,2013-07-17 15:10:00,
2013-07-17 09:52:00,61.0,-99.9,-100.00,North,10,3.0,7.0,-999,-99.99,,,-99.99,,2013-07-17 15:52:00,
2013-07-17 10:02:00,61.0,-99.9,-100.00,North,10,3.0,7.0,-999,-99.99,,,-99.99,,2013-07-17 16:02:00,
2013-07-17 10:52:00,64.0,-99.9,-100.00,East,95,5.0,6.0,-999,-99.99,,,-99.99,,2013-07-17 16:52:00,
2013-07-17 11:02:00,64.0,-99.9,-100.00,East,95,5.0,6.0,-999,-99.99,,,-99.99,,2013-07-17 17:02:00,
2013-07-17 11:52:00,64.0,-99.9,-100.00,NNE,30,8.0,10.0,-999,-99.99,,,-99.99,,2013-07-17 17:52:00,
2013-07-17 12:01:00,64.0,-99.9,-100.00,NNE,30,8.0,10.0,-999,-99.99,,,-99.99,,2013-07-17 18:01:00,
2013-07-17 12:52:00,68.0,-99.9,-100.00,NE,35,7.0,9.0,-999,-99.99,,,-99.99,,2013-07-17 18:52:00,
2013-07-17 13:02:00,68.0,-99.9,-100.00,NE,35,7.0,9.0,-999,-99.99,,,-99.99,,2013-07-17 19:02:00,
2013-07-17 13:53:00,68.0,-99.9,-100.00,East,79,4.0,7.0,-999,-99.99,,,-99.99,,2013-07-17 19:53:00,
2013-07-17 14:02:00,68.0,-99.9,-100.00,East,79,4.0,7.0,-999,-99.99,,,-99.99,,2013-07-17 20:02:00,
2013-07-17 14:53:00,70.0,-99.9,-100.00,North,1,4.0,8.0,-999,-99.99,,,-99.99,,2013-07-17 20:53:00,
2013-07-17 15:02:00,70.0,-99.9,-100.00,North,1,4.0,8.0,-999,-99.99,,,-99.99,,2013-07-17 21:02:00,
2013-07-17 15:53:00,72.0,-99.9,-100.00,East,99,8.0,8.0,-999,-99.99,,,-99.99,,2013-07-17 21:53:00,
2013-07-17 16:01:00,72.0,-99.9,-100.00,East,99,8.0,8.0,-999,-99.99,,,-99.99,,2013-07-17 22:01:00,
2013-07-17 16:53:00,72.0,-99.9,-100.00,NNE,26,7.0,8.0,-999,-99.99,,,-99.99,,2013-07-17 22:53:00,
2013-07-17 17:02:00,72.0,-99.9,-100.00,NNE,26,7.0,8.0,-999,-99.99,,,-99.99,,2013-07-17 23:02:00,
2013-07-17 17:52:00,72.0,-99.9,-100.00,East,82,5.0,10.0,-999,-99.99,,,-99.99,,2013-07-17 23:52:00,
2013-07-17 18:01:00,72.0,-99.9,-100.00,East,82,5.0,10.0,-999,-99.99,,,-99.99,,2013-07-18 00:01:00,
2013-07-17 18:52:00,72.0,-99.9,-100.00,East,97,7.0,8.0,-999,-99.99,,,-99.99,,2013-07-18 00:52:00,
2013-07-17 19:01:00,72.0,-99.9,-100.00,East,97,7.0,8.0,-999,-99.99,,,-99.99,,2013-07-18 01:01:00,
2013-07-17 19:53:00,72.0,-99.9,-100.00,NNE,32,5.0,6.0,-999,-99.99,,,-99.99,,2013-07-18 01:53:00,
2013-07-17 20:02:00,72.0,-99.9,-100.00,NNE,32,5.0,6.0,-999,-99.99,,,-99.99,,2013-07-18 02:02:00,
2013-07-17 20:52:00,70.0,-99.9,-100.00,NE,36,3.0,4.0,-999,-99.99,,,-99.99,,2013-07-18 02:52:00,
2013-07-17 21:01:00,70.0,-99.9,-100.00,NE,36,3.0,4.0,-999,-99.99,,,-99.99,,2013-07-18 03:01:00,
2013-07-17 21:52:00,66.0,-99.9,-100.00,North,11,2.0,5.0,-999,-99.99,,,-99.99,,2013-07-18 03:52:00,
2013-07-17 22:02:00,66.0,-99.9,-100.00,North,11,2.0,5.0,-999,-99.99,,,-99.99,,2013-07-18 04:02:00,
2013-07-17 22:52:00,66.0,-99.9,-100.00,East,88,4.0,5.0,-999,-99.99,,,-99.99,,2013-07-18 04:52:00,
2013-07-17 23:02:00,66.0,-99.9,-100.00,East,88,4.0,5.0,-999,-99.99,,,-99.99,,2013-07-18 05:02:00,
2013-07-17 23:52:00,63.0,-99.9,-100.00,NNE,22,3.0,4.0,-999,-99.99,,,-99.99,,2013-07-18 05:52:00,